Location: Unspecified
(41.1850°N, 73.2650°W)
Time: 02:43:18
(UTC+00:00)

SL-08 R/B - Pass Details

Date: 20 March 2026
Orbit: 946 x 992 km, 83.0° (Epoch: 13 April)

Event Time Altitude Azimuth Distance (km) Brightness Sun altitude
Rises 23:22:57 0° 130° (SE) 3,610 7.0 -4.1°
Reaches altitude 10° 23:27:01 10° 104° (ESE) 2,666 6.1 -4.9°
Maximum altitude 23:29:31 13° 79° (E) 2,468 6.0 -5.4°
Drops below altitude 10° 23:32:01 10° 54° (NE) 2,671 6.4 -5.8°
Sets 23:36:04 0° 28° (NNE) 3,623 7.3 -6.6°
